Location: Newark
(39.6867°N, 100.6772°W)
Time: 19:46:42
(UTC+00:00)

Vanguard 1 Rocket - Pass Details

Date: 25 October 2019
Orbit: 651 x 4225 km, 34.3° (Epoch: 10 November)

Event Time Altitude Azimuth Distance (km) Brightness Sun altitude
Rises 14:02:36 0° 206° (SSW) 4,036 10.7 9.9°
Reaches altitude 10° 14:05:16 10° 194° (SSW) 3,409 10.5 10.3°
Maximum altitude 14:12:54 31° 136° (SE) 3,042 11.5 11.6°
Drops below altitude 10° 14:25:51 10° 83° (E) 5,874 12.6 13.8°
Sets 14:32:20 0° 76° (ENE) 7,479 12.8 14.9°
